timestamp,surface_pressure_avg,surface_temp_avg,battery_voltage,lat,long
2017-12-21 00:00:00+00:00,351.1862,4.4,12.65,47.84626,-54.09684
2017-12-21 00:10:00+00:00,351.683,4.47,12.57,47.84626,-54.09684
2017-12-21 00:20:00+00:00,352.4678,4.5,12.65,47.84626,-54.09684
2017-12-21 00:30:00+00:00,349.5829,4.5,12.65,47.84626,-54.09684
2017-12-21 00:40:00+00:00,349.7697,4.5,12.65,47.84626,-54.09684
2017-12-21 00:50:00+00:00,349.168,4.5,12.65,47.84626,-54.09684
2017-12-21 01:00:00+00:00,347.7695,4.5,12.57,47.84626,-54.09684
2017-12-21 01:10:00+00:00,340.7346,4.5,12.57,47.84626,-54.09684
2017-12-21 01:20:00+00:00,340.3513,4.5,12.65,47.84626,-54.09684
2017-12-21 01:30:00+00:00,340.548,4.5,12.65,47.84626,-54.09684
2017-12-21 01:40:00+00:00,338.4696,4.5,12.65,47.84626,-54.09684
2017-12-21 01:50:00+00:00,333.8413,4.5,12.65,47.84626,-54.09684
2017-12-21 02:00:00+00:00,337.6796,4.56,12.57,47.84626,-54.09684
2017-12-21 02:10:00+00:00,336.7713,4.6,12.57,47.84626,-54.09684
2017-12-21 02:20:00+00:00,331.8329,4.6,12.65,47.84626,-54.09684
2017-12-21 02:30:00+00:00,326.098,4.6,12.65,47.84626,-54.09684
2017-12-21 02:40:00+00:00,325.0681,4.6,12.65,47.84626,-54.09684
2017-12-21 02:50:00+00:00,324.8214,4.6,12.65,47.84626,-54.09684
2017-12-21 03:00:00+00:00,320.9297,4.67,12.57,47.84626,-54.09684
2017-12-21 03:10:00+00:00,316.2897,4.7,12.57,47.84626,-54.09684
2017-12-21 03:20:00+00:00,314.3263,4.7,12.65,47.84626,-54.09684
2017-12-21 03:30:00+00:00,311.0914,4.7,12.65,47.84626,-54.09684
2017-12-21 03:40:00+00:00,310.0447,4.7,12.65,47.84626,-54.09684
2017-12-21 03:50:00+00:00,305.3897,4.7,12.65,47.84626,-54.09684
2017-12-21 04:00:00+00:00,298.0947,4.7,12.57,47.84626,-54.09684
2017-12-21 04:10:00+00:00,292.9348,4.7,12.57,47.84626,-54.09684
2017-12-21 04:20:00+00:00,291.108,4.7,12.65,47.84626,-54.09684
2017-12-21 04:30:00+00:00,282.7047,4.7,12.65,47.84626,-54.09684
2017-12-21 04:40:00+00:00,274.3114,4.7,12.65,47.84626,-54.09684
2017-12-21 04:50:00+00:00,270.2981,4.69,12.65,47.84626,-54.09684
2017-12-21 05:00:00+00:00,268.8247,4.69,12.57,47.84626,-54.09684
2017-12-21 05:10:00+00:00,260.4964,4.69,12.57,47.84626,-54.09684
2017-12-21 05:20:00+00:00,252.4348,4.68,12.65,47.84626,-54.09684
2017-12-21 05:30:00+00:00,248.5348,4.66,12.65,47.84626,-54.09684
2017-12-21 05:40:00+00:00,247.5898,4.66,12.65,47.84626,-54.09684
2017-12-21 05:50:00+00:00,243.4497,4.66,12.65,47.84626,-54.09684
2017-12-21 06:00:00+00:00,235.1765,4.67,12.57,47.84626,-54.09684
2017-12-21 06:10:00+00:00,229.5198,4.65,12.57,47.84626,-54.09684
2017-12-21 06:20:00+00:00,224.2964,4.6,12.65,47.84626,-54.09684
2017-12-21 06:30:00+00:00,216.9881,4.57,12.57,47.84626,-54.09684
2017-12-21 06:40:00+00:00,213.5231,4.5,12.65,47.84626,-54.09684
2017-12-21 06:50:00+00:00,211.0764,4.5,12.65,47.84626,-54.09684
2017-12-21 07:00:00+00:00,205.1164,4.4,12.57,47.84626,-54.09684
2017-12-21 07:10:00+00:00,199.4398,4.3,12.57,47.84626,-54.09684
2017-12-21 07:20:00+00:00,198.3681,4.2,12.57,47.84626,-54.09684
2017-12-21 07:30:00+00:00,201.4531,4.2,12.57,47.84626,-54.09684
2017-12-21 07:40:00+00:00,201.9615,4.2,12.65,47.84626,-54.09684
2017-12-21 07:50:00+00:00,199.7465,4.2,12.65,47.84626,-54.09684
2017-12-21 08:00:00+00:00,205.4981,4.2,12.57,47.84626,-54.09684
2017-12-21 08:10:00+00:00,216.1614,4.2,12.57,47.84626,-54.09684
2017-12-21 08:20:00+00:00,218.7481,4.26,12.57,47.84626,-54.09684
2017-12-21 08:30:00+00:00,221.7781,4.3,12.57,47.84626,-54.09684
2017-12-21 08:40:00+00:00,230.0964,4.3,12.65,47.84626,-54.09684
2017-12-21 08:50:00+00:00,232.648,4.3,12.65,47.84626,-54.09684
2017-12-21 09:00:00+00:00,236.248,4.2,12.57,47.84626,-54.09684
2017-12-21 09:10:00+00:00,247.5531,4.27,12.57,47.84626,-54.09684
2017-12-21 09:20:00+00:00,255.1547,4.3,12.57,47.84626,-54.09684
2017-12-21 09:30:00+00:00,256.2081,4.28,12.57,47.84626,-54.09684
2017-12-21 09:40:00+00:00,260.6464,4.22,12.57,47.84626,-54.09684
2017-12-21 09:50:00+00:00,269.6947,4.2,12.65,47.84626,-54.09684
2017-12-21 10:00:00+00:00,280.0631,4.3,12.57,47.84626,-54.09684
2017-12-21 10:10:00+00:00,288.3947,4.42,12.57,47.84626,-54.09684
2017-12-21 10:20:00+00:00,294.1746,4.4,12.57,47.84626,-54.09684
2017-12-21 10:30:00+00:00,297.0081,4.4,12.57,47.84626,-54.09684
2017-12-21 10:40:00+00:00,301.5931,4.4,12.57,47.84626,-54.09684
2017-12-21 10:50:00+00:00,307.4047,4.4,12.57,47.84626,-54.09684
2017-12-21 11:00:00+00:00,309.7531,4.4,12.57,47.84626,-54.09684
2017-12-21 11:10:00+00:00,316.1813,4.4,12.57,47.84626,-54.09684
2017-12-21 11:20:00+00:00,323.1647,4.4,12.57,47.84626,-54.09684
2017-12-21 11:30:00+00:00,330.488,4.46,12.57,47.84626,-54.09684
2017-12-21 11:40:00+00:00,339.4481,4.5,12.57,47.84626,-54.09684
2017-12-21 11:50:00+00:00,348.0129,4.5,12.57,47.84626,-54.09684
2017-12-21 12:00:00+00:00,349.7529,4.5,12.57,47.84626,-54.09684
2017-12-21 12:10:00+00:00,350.7829,4.5,12.73,47.84626,-54.09684
2017-12-21 12:20:00+00:00,359.8063,4.5,12.81,47.84626,-54.09684
2017-12-21 12:30:00+00:00,364.9597,4.5,12.97,47.84626,-54.09684
2017-12-21 12:40:00+00:00,362.528,4.5,12.81,47.84626,-54.09684
2017-12-21 12:50:00+00:00,362.308,4.5,12.81,47.84626,-54.09684
2017-12-21 13:00:00+00:00,367.3463,4.5,12.81,47.84626,-54.09684
2017-12-21 13:10:00+00:00,370.8279,4.5,12.73,47.84626,-54.09684
2017-12-21 13:20:00+00:00,366.1912,4.52,12.97,47.84626,-54.09684
2017-12-21 13:30:00+00:00,367.5596,4.52,12.89,47.84626,-54.09684
2017-12-21 13:40:00+00:00,372.7762,4.5,12.97,47.84626,-54.09684
2017-12-21 13:50:00+00:00,370.2496,4.5,12.97,47.84626,-54.09684
2017-12-21 14:00:00+00:00,367.2513,4.5,12.89,47.84626,-54.09684
2017-12-21 14:10:00+00:00,368.8846,4.5,13.05,47.84626,-54.09684
2017-12-21 14:20:00+00:00,375.5212,4.5,12.89,47.84626,-54.09684
2017-12-21 14:30:00+00:00,371.8214,4.54,12.89,47.84626,-54.09684
2017-12-21 14:40:00+00:00,363.4846,4.58,12.81,47.84626,-54.09684
2017-12-21 14:50:00+00:00,366.7413,4.6,12.89,47.84626,-54.09684
2017-12-21 15:00:00+00:00,369.148,4.6,12.81,47.84626,-54.09684
2017-12-21 15:10:00+00:00,362.7196,4.6,12.73,47.84626,-54.09684
2017-12-21 15:20:00+00:00,350.9297,4.6,12.81,47.84626,-54.09684
2017-12-21 15:30:00+00:00,350.1163,4.6,12.89,47.84626,-54.09684
2017-12-21 15:40:00+00:00,349.858,4.6,12.89,47.84626,-54.09684
2017-12-21 15:50:00+00:00,336.208,4.6,12.89,47.84626,-54.09684
2017-12-21 16:00:00+00:00,327.8113,4.6,12.81,47.84626,-54.09684
2017-12-21 16:10:00+00:00,330.793,4.6,12.73,47.84626,-54.09684
2017-12-21 16:20:00+00:00,323.3413,4.6,12.81,47.84626,-54.09684
2017-12-21 16:30:00+00:00,308.0431,4.6,12.81,47.84626,-54.09684
2017-12-21 16:40:00+00:00,302.6179,4.6,12.81,47.84626,-54.09684
2017-12-21 16:50:00+00:00,302.3931,4.6,12.81,47.84626,-54.09684
2017-12-21 17:00:00+00:00,288.5563,4.61,12.81,47.84626,-54.09684
2017-12-21 17:10:00+00:00,275.8764,4.7,12.73,47.84626,-54.09684
2017-12-21 17:20:00+00:00,270.8297,4.65,12.81,47.84626,-54.09684
2017-12-21 17:30:00+00:00,262.8181,4.6,12.81,47.84626,-54.09684
2017-12-21 17:40:00+00:00,248.8864,4.6,12.89,47.84626,-54.09684
2017-12-21 17:50:00+00:00,243.1447,4.6,12.81,47.84626,-54.09684
2017-12-21 18:00:00+00:00,240.6714,4.5,12.81,47.84626,-54.09684
2017-12-21 18:10:00+00:00,233.5781,4.3,12.73,47.84626,-54.09684
2017-12-21 18:20:00+00:00,227.0647,4.1,12.73,47.84626,-54.09684
2017-12-21 18:30:00+00:00,222.9114,4.1,12.73,47.84626,-54.09684
2017-12-21 18:40:00+00:00,219.8131,4.19,12.73,47.84626,-54.09684
2017-12-21 18:50:00+00:00,216.0164,4.2,12.73,47.84626,-54.09684
2017-12-21 19:00:00+00:00,212.5597,4.19,12.65,47.84626,-54.09684
2017-12-21 19:10:00+00:00,209.3514,4.1,12.65,47.84626,-54.09684
2017-12-21 19:20:00+00:00,208.9831,4.01,12.73,47.84626,-54.09684
2017-12-21 19:30:00+00:00,208.2348,4.01,12.65,47.84626,-54.09684
2017-12-21 19:40:00+00:00,203.2431,4.0,12.73,47.84626,-54.09684
2017-12-21 19:50:00+00:00,202.6031,4.0,12.73,47.84626,-54.09684
2017-12-21 20:00:00+00:00,206.4031,4.0,12.65,47.84626,-54.09684
2017-12-21 20:10:00+00:00,210.8848,4.08,12.65,47.84626,-54.09684
2017-12-21 20:20:00+00:00,214.2465,4.1,12.65,47.84626,-54.09684
2017-12-21 20:30:00+00:00,218.0331,4.1,12.65,47.84626,-54.09684
2017-12-21 20:40:00+00:00,225.1731,4.1,12.65,47.84626,-54.09684
2017-12-21 20:50:00+00:00,229.7681,4.1,12.65,47.84626,-54.09684
2017-12-21 21:00:00+00:00,231.4181,4.0,12.65,47.84626,-54.09684
2017-12-21 21:10:00+00:00,238.6364,4.0,12.57,47.84626,-54.09684
2017-12-21 21:20:00+00:00,247.5164,4.0,12.65,47.84626,-54.09684
2017-12-21 21:30:00+00:00,249.6681,3.9,12.65,47.84626,-54.09684
2017-12-21 21:40:00+00:00,251.6198,3.9,12.65,47.84626,-54.09684
2017-12-21 21:50:00+00:00,262.1198,3.9,12.65,47.84626,-54.09684
2017-12-21 22:00:00+00:00,270.358,3.9,12.57,47.84626,-54.09684
2017-12-21 22:10:00+00:00,271.3715,3.9,12.57,47.84626,-54.09684
2017-12-21 22:20:00+00:00,276.5497,3.9,12.65,47.84626,-54.09684
2017-12-21 22:30:00+00:00,282.7497,3.96,12.65,47.84626,-54.09684
2017-12-21 22:40:00+00:00,283.0547,4.02,12.65,47.84626,-54.09684
2017-12-21 22:50:00+00:00,283.6447,4.08,12.65,47.84626,-54.09684
2017-12-21 23:00:00+00:00,286.8331,4.12,12.57,47.84626,-54.09684
2017-12-21 23:10:00+00:00,289.4647,4.2,12.57,47.84626,-54.09684
2017-12-21 23:20:00+00:00,289.1831,4.2,12.65,47.84626,-54.09684
2017-12-21 23:30:00+00:00,288.6147,4.2,12.57,47.84626,-54.09684
2017-12-21 23:40:00+00:00,291.793,4.2,12.65,47.84626,-54.09684
2017-12-21 23:50:00+00:00,298.2947,4.2,12.65,47.84626,-54.09684
